Kosmos-381

operational
NORAD ID: 4783 Int'l Des: 1970-102 Owner: OKB10 Country: SU
LEOCIRCULAR

About Kosmos-381

Description loading...

Live Position

Loading 3D Globe...

Upcoming Passes

Altitude History

Altitude vs Time

uPlot chart will show altitude changes over time

Two-Line Element Set

1 04783U 70102A 26049.60247659 .00000006 00000-0 29423-4 0 9992
2 04783 74.0313 208.2117 0031453 254.0528 105.7126 13.75034820769855
Epoch: Feb 18, 2026 • Age: 9 hours

Current Status

Altitude 1006.1 km
Velocity 7.35 km/s
Sub-Earth Point 55.90°N, 142.91°W
Type other

Large Constellations

Loading constellations...